Change the Weather History Date:

Wednesday, January 8, 2014

  Actual Average Record
Temperature  
Mean Temperature 20 °F 35 °F  
Max Temperature 29 °F 43 °F 69 °F (2008)
Min Temperature 10 °F 27 °F 10 °F (1970)
Degree Days  
Heating Degree Days 45 30  
Month to date heating degree days 283 237  
Since 1 July heating degree days 1779 1819  
Cooling Degree Days 0 0  
Month to date cooling degree days 0 0  
Year to date cooling degree days 0 0  
Moisture  
Dew Point 4 °F    
Average Humidity 51    
Maximum Humidity 73    
Minimum Humidity 29    
Precipitation  
Precipitation 0.00 in 0.10 in 0.98 in (1976)
Month to date precipitation 1.16 0.76  
Year to date precipitation 1.16 0.76  
Sea Level Pressure  
Sea Level Pressure 30.55 in    
Wind  
Wind Speed 2 mph (NW)    
Max Wind Speed 10 mph    
Max Gust Speed 15 mph    
Visibility 10 miles    
Events      
T = Trace of Precipitation, MM = Missing Value Source: NWS Daily Summary

Daily Weather History Graph

Daily Weather History Graph

Search for Another Location

Airport or City:

Trip Planner

Search our weather history database for the weather conditions in past years. The results will help you decide how hot, cold, wet, or windy it might be!

Date:

Astronomy

Jan. 08, 2014 Rise Set
Actual Time 7:19 AM EST 4:57 PM EST
Civil Twilight 6:50 AM EST 5:26 PM EST
Nautical Twilight 6:17 AM EST 5:59 PM EST
Astronomical Twilight 5:45 AM EST 6:31 PM EST
Moon 11:46 AM EST (1/8) 12:24 AM EST (1/8)
Length of Visible Light 10h 36m
Length of Day
9h 37m
First Quarter, 56% of the Moon is Illuminated
Jan 8
First Quarter
Jan 15
Full
Jan 24
Last Quarter
Jan 30
New
Feb 6
First Quarter

Hourly Weather History & Observations

Time (EST) Temp. Windchill Dew Point Humidity Pressure Visibility Wind Dir Wind Speed Gust Speed Precip Events Conditions
12:54 AM 10.9 °F - 3.0 °F 70% 30.48 in 10.0 mi Calm Calm - N/A   Clear
1:54 AM 12.0 °F - 1.0 °F 61% 30.50 in 10.0 mi Calm Calm - N/A   Clear
2:54 AM 12.0 °F - 1.0 °F 61% 30.52 in 10.0 mi Calm Calm - N/A   Clear
3:54 AM 12.0 °F - 1.0 °F 61% 30.53 in 10.0 mi Calm Calm - N/A   Clear
4:54 AM 10.9 °F - 1.0 °F 64% 30.52 in 10.0 mi Calm Calm - N/A   Clear
5:54 AM 12.0 °F 5.9 °F -0.0 °F 59% 30.55 in 10.0 mi North 3.5 mph - N/A   Clear
6:54 AM 10.0 °F - 3.0 °F 73% 30.58 in 10.0 mi Calm Calm - N/A   Clear
7:54 AM 12.0 °F 5.9 °F 1.9 °F 64% 30.59 in 10.0 mi NNE 3.5 mph - N/A   Clear
8:54 AM 17.1 °F 7.6 °F -0.9 °F 45% 30.61 in 10.0 mi North 6.9 mph - N/A   Clear
9:54 AM 19.9 °F 13.4 °F -0.9 °F 40% 30.63 in 10.0 mi North 4.6 mph - N/A   Clear
10:54 AM 21.9 °F 15.7 °F -0.9 °F 37% 30.62 in 10.0 mi NW 4.6 mph - N/A   Clear
11:54 AM 24.1 °F - 1.0 °F 37% 30.58 in 10.0 mi Calm Calm - N/A   Clear
12:54 PM 26.1 °F 18.4 °F -2.0 °F 30% 30.56 in 10.0 mi West 6.9 mph - N/A   Clear
1:54 PM 28.9 °F 21.9 °F -0.9 °F 28% 30.54 in 10.0 mi Variable 6.9 mph - N/A   Clear
2:54 PM 28.0 °F 24.2 °F 1.9 °F 33% 30.53 in 10.0 mi WSW 3.5 mph - N/A   Clear
3:54 PM 28.9 °F 21.9 °F 3.0 °F 33% 30.53 in 10.0 mi SSW 6.9 mph - N/A   Clear
4:54 PM 28.0 °F 22.8 °F 3.9 °F 36% 30.53 in 10.0 mi SW 4.6 mph - N/A   Clear
5:54 PM 27.0 °F - 6.1 °F 41% 30.55 in 10.0 mi Calm Calm - N/A   Clear
6:54 PM 24.1 °F - 10.0 °F 55% 30.56 in 10.0 mi Calm Calm - N/A   Clear
7:54 PM 21.9 °F - 10.9 °F 63% 30.56 in 10.0 mi Calm Calm - N/A   Scattered Clouds
8:54 PM 21.0 °F - 12.9 °F 71% 30.56 in 10.0 mi Calm Calm - N/A   Clear
9:54 PM 21.0 °F - 12.9 °F 71% 30.56 in 10.0 mi Calm Calm - N/A   Clear
10:54 PM 21.9 °F - 14.0 °F 72% 30.54 in 10.0 mi Calm Calm - N/A   Partly Cloudy
11:54 PM 23.0 °F - 16.0 °F 74% 30.53 in 10.0 mi Calm Calm - N/A   Partly Cloudy